TimeCST,TemperatureF,Dew PointF,Humidity,Sea Level PressureIn,VisibilityMPH,Wind Direction,Wind SpeedMPH,Gust SpeedMPH,PrecipitationIn,Events,Conditions,WindDirDegrees,DateUTC
12:53 AM,10.0,1.0,67,30.72,10.0,West,6.9,-,N/A,,Clear,270,2013-11-24 06:53:00
1:53 AM,9.0,1.0,70,30.73,10.0,West,4.6,-,N/A,,Clear,280,2013-11-24 07:53:00
2:53 AM,9.0,1.0,70,30.72,10.0,West,8.1,-,N/A,,Clear,280,2013-11-24 08:53:00
3:53 AM,8.1,1.0,73,30.69,10.0,WNW,5.8,-,N/A,,Clear,290,2013-11-24 09:53:00
4:53 AM,8.1,1.0,73,30.70,10.0,West,5.8,-,N/A,,Clear,270,2013-11-24 10:53:00
5:53 AM,8.1,-0.0,70,30.71,10.0,West,5.8,-,N/A,,Clear,270,2013-11-24 11:53:00
6:53 AM,7.0,1.0,77,30.71,10.0,West,5.8,-,N/A,,Clear,270,2013-11-24 12:53:00
7:53 AM,9.0,1.0,70,30.71,10.0,West,5.8,-,N/A,,Clear,260,2013-11-24 13:53:00
8:53 AM,12.0,3.0,67,30.71,10.0,Variable,3.5,-,N/A,,Clear,0,2013-11-24 14:53:00
9:53 AM,15.1,3.0,59,30.70,10.0,WSW,8.1,-,N/A,,Clear,240,2013-11-24 15:53:00
10:53 AM,18.0,1.0,48,30.66,10.0,WSW,5.8,-,N/A,,Overcast,240,2013-11-24 16:53:00
11:53 AM,19.9,1.0,44,30.61,10.0,SW,8.1,-,N/A,,Clear,230,2013-11-24 17:53:00
12:53 PM,23.0,1.9,40,30.56,10.0,SW,8.1,-,N/A,,Clear,230,2013-11-24 18:53:00
1:53 PM,24.1,1.0,37,30.52,10.0,SW,10.4,-,N/A,,Clear,220,2013-11-24 19:53:00
2:53 PM,24.1,-0.9,34,30.49,10.0,SSW,12.7,18.4,N/A,,Clear,210,2013-11-24 20:53:00
3:53 PM,25.0,3.0,39,30.46,10.0,SSW,11.5,-,N/A,,Clear,210,2013-11-24 21:53:00
4:53 PM,23.0,3.9,44,30.43,10.0,SSW,10.4,-,N/A,,Clear,200,2013-11-24 22:53:00
5:53 PM,21.9,5.0,48,30.40,10.0,SSW,13.8,-,N/A,,Clear,200,2013-11-24 23:53:00
6:53 PM,23.0,3.9,44,30.37,10.0,SSW,15.0,21.9,N/A,,Clear,210,2013-11-25 00:53:00
7:53 PM,21.9,5.0,48,30.32,10.0,SSW,19.6,28.8,N/A,,Clear,200,2013-11-25 01:53:00
8:53 PM,23.0,5.0,46,30.26,10.0,SSW,19.6,32.2,N/A,,Clear,210,2013-11-25 02:53:00
9:53 PM,23.0,3.9,44,30.24,10.0,SSW,20.7,34.5,N/A,,Clear,210,2013-11-25 03:53:00
10:53 PM,23.0,3.9,44,30.24,10.0,SSW,15.0,26.5,N/A,,Clear,210,2013-11-25 04:53:00
11:53 PM,23.0,5.0,46,30.22,10.0,SSW,20.7,28.8,N/A,,Clear,210,2013-11-25 05:53:00